User: anonymous   Login
Location: Prague
(50.0830°N, 14.4670°E)
Time: 10:14:11
(UTC+01:00)
Language:

CAS-4B - Orbit

View from above orbital plane
View from above orbital plane
View from above satellite
View from above satellite

Ground track
Ground track

The orbit data is extracted from the following two-line orbital elements,

1 42759U 17034B   21339.83881036  .00001389  00000-0  95792-4 0  9994
2 42759  43.0182 318.6363 0007054 162.5604 271.7548 15.10595011247068
Epoch (UTC): 05 December 2021 20:07:53
Eccentricity: 0.0007054
inclination: 43.0182°
perigee height: 529 km
apogee height: 539 km
right ascension of ascending node: 318.6363°
argument of perigee: 162.5604°
revolutions per day: 15.10595011
mean anomaly at epoch: 271.7548°
orbit number at epoch: 24706

The dashed part of the orbit path shows where the satellite is in the earth's shadow,  

DLR